FW4110 Weather Reports


Display with metric or nautical units.
time (UTC)temp
F
wind
direction
speed
MPH
gust
MPH
rain 1hr
in
rain 24hr
in
rain mn
in
humidity
%
barometer
mb
20200331232019 62 358 3.0 13.0 0.00 0.00 0.00 50 1013.4
20200331231549 62 317 3.0 13.0 0.00 0.00 0.00 50 1013.5
20200331231002 62 7 7.0 13.0 0.00 0.00 0.00 50 1013.4
20200331230508 62 1 7.0 13.0 0.00 0.00 0.00 49 1013.3
20200331230006 62 359 5.0 10.0 0.00 0.00 0.00 50 1013.3
20200331225502 62 283 6.0 12.0 0.00 0.00 0.00 48 1013.3
20200331225004 63 301 3.0 12.0 0.00 0.00 0.00 47 1013.2
20200331224502 62 313 6.0 13.0 0.00 0.00 0.00 47 1013.2
20200331224002 62 335 6.0 13.0 0.00 0.00 0.00 45 1013.1
20200331223510 62 335 6.0 11.0 0.00 0.00 0.00 44 1013.1
20200331223002 62 327 6.0 12.0 0.00 0.00 0.00 46 1013.1
20200331222501 62 290 6.0 12.0 0.00 0.00 0.00 45 1013.1
20200331222005 62 311 5.0 10.0 0.00 0.00 0.00 46 1013.0
20200331221107 62 336 5.0 13.0 0.00 0.00 0.00 45 1013.0
20200331220555 62 290 6.0 14.0 0.00 0.00 0.00 46 1013.1
20200331220116 62 297 7.0 14.0 0.00 0.00 0.00 46 1013.1
20200331215553 62 295 6.0 13.0 0.00 0.00 0.00 45 1013.1
20200331215059 62 7 6.0 13.0 0.00 0.00 0.00 47 1013.1
20200331214605 62 311 7.0 13.0 0.00 0.00 0.00 46 1013.1
20200331214055 62 306 8.0 14.0 0.00 0.00 0.00 46 1013.2
20200331213554 62 311 9.0 14.0 0.00 0.00 0.00 44 1013.2
20200331213135 63 335 8.0 14.0 0.00 0.00 0.00 43 1013.1
20200331212553 63 314 9.0 13.0 0.00 0.00 0.00 44 1013.2
20200331212122 63 5 7.0 16.0 0.00 0.00 0.00 45 1013.2
20200331211631 63 304 8.0 16.0 0.00 0.00 0.00 44 1013.2
20200331211053 64 284 7.0 12.0 0.00 0.00 0.00 44 1013.2
20200331210546 63 275 3.0 15.0 0.00 0.00 0.00 45 1013.1
20200331210125 62 304 8.0 15.0 0.00 0.00 0.00 44 1013.3
20200331205546 63 285 6.0 15.0 0.00 0.00 0.00 44 1013.2
20200331205045 63 318 6.0 15.0 0.00 0.00 0.00 44 1013.2
20200331204625 63 303 4.0 14.0 0.00 0.00 0.00 45 1013.1
20200331204044 62 337 7.0 14.0 0.00 0.00 0.00 46 1013.2
20200331203600 62 303 5.0 11.0 0.00 0.00 0.00 44 1013.2
20200331203123 62 358 6.0 11.0 0.00 0.00 0.00 46 1013.2
20200331202544 61 332 6.0 11.0 0.00 0.00 0.00 46 1013.3
20200331202121 61 330 4.0 10.0 0.00 0.00 0.00 47 1013.3
20200331201548 61 336 3.0 7.0 0.00 0.00 0.00 49 1013.4
20200331201034 61 267 3.0 13.0 0.00 0.00 0.00 49 1013.4
20200331200535 61 305 6.0 15.0 0.00 0.00 0.00 49 1013.5
20200331200053 62 268 6.0 15.0 0.00 0.00 0.00 47 1013.5
20200331195533 63 302 5.0 15.0 0.00 0.00 0.00 45 1013.5
20200331195031 63 318 6.0 14.0 0.00 0.00 0.00 46 1013.4
20200331194618 62 328 5.0 14.0 0.00 0.00 0.00 47 1013.5
20200331194033 62 313 6.0 12.0 0.00 0.00 0.00 45 1013.6
20200331193529 61 309 4.0 13.0 0.00 0.00 0.00 48 1013.6
20200331193123 61 3 4.0 13.0 0.00 0.00 0.00 49 1013.7
20200331192527 60 291 2.0 13.0 0.00 0.00 0.00 50 1013.7
20200331192032 61 323 8.0 13.0 0.00 0.00 0.00 48 1013.9
20200331191546 61 67 5.0 8.0 0.00 0.00 0.00 49 1013.8
20200331191020 61 284 2.0 9.0 0.00 0.00 0.00 51 1013.8
20200331190520 61 270 4.0 12.0 0.00 0.00 0.00 49 1013.8
20200331190023 61 94 2.0 12.0 0.00 0.00 0.00 50 1013.9
20200331185518 60 263 1.0 12.0 0.00 0.00 0.00 50 1013.9
20200331185023 60 328 6.0 12.0 0.00 0.00 0.00 50 1014.0
20200331184518 61 291 7.0 13.0 0.00 0.00 0.00 49 1013.9
20200331184016 60 287 6.0 14.0 0.00 0.00 0.00 49 1014.0
20200331183516 60 294 7.0 14.0 0.00 0.00 0.00 49 1014.1
20200331183211 61 295 7.0 11.0 0.00 0.00 0.00 50 1014.0
20200331182518 60 350 1.0 9.0 0.00 0.00 0.00 53 1014.1
20200331182013 60 309 5.0 11.0 0.00 0.00 0.00 51 1014.1
20200331181515 59 25 4.0 13.0 0.00 0.00 0.00 51 1014.2
20200331181006 60 301 6.0 13.0 0.00 0.00 0.00 50 1014.4
20200331180509 59 268 0.0 11.0 0.00 0.00 0.00 54 1014.4
20200331180040 59 207 1.0 11.0 0.00 0.00 0.00 52 1014.4
20200331175504 59 360 3.0 9.0 0.00 0.00 0.00 54 1014.6
20200331175007 59 266 3.0 9.0 0.00 0.00 0.00 53 1014.7
20200331174503 59 5 3.0 9.0 0.00 0.00 0.00 55 1014.7
20200331174002 59 20 4.0 6.0 0.00 0.00 0.00 54 1014.7
20200331173157 58 290 2.0 6.0 0.00 0.00 0.00 55 1014.8
20200331172559 57 126 3.0 7.0 0.00 0.00 0.00 55 1015.0
20200331172059 57 74 1.0 4.0 0.00 0.00 0.00 57 1015.2
20200331171708 56 313 3.0 4.0 0.00 0.00 0.00 57 1015.2
20200331171102 56 311 1.0 6.0 0.00 0.00 0.00 57 1015.2
20200331170553 56 308 4.0 6.0 0.00 0.00 0.00 56 1015.3
20200331170155 57 218 0.0 6.0 0.00 0.00 0.00 56 1015.3
20200331165559 57 275 3.0 6.0 0.00 0.00 0.00 56 1015.3
20200331165109 57 129 2.0 6.0 0.00 0.00 0.00 56 1015.3
20200331164556 57 231 1.0 6.0 0.00 0.00 0.00 57 1015.3
20200331164049 56 24 1.0 6.0 0.00 0.00 0.00 57 1015.5
20200331163605 56 264 1.0 5.0 0.00 0.00 0.00 59 1015.4
20200331163109 55 121 1.0 6.0 0.00 0.00 0.00 59 1015.4
20200331162605 55 81 1.0 6.0 0.00 0.00 0.00 60 1015.4
20200331162048 55 343 1.0 5.0 0.00 0.00 0.00 60 1015.4
20200331161551 54 109 1.0 7.0 0.00 0.00 0.00 59 1015.5
20200331161041 54 115 2.0 0.0 0.00 0.00 0.00 60 1015.6
20200331160536 54 12 2.0 6.0 0.00 0.00 0.00 63 1015.5
20200331160036 54 82 3.0 6.0 0.00 0.00 0.00 62 1015.7
20200331155527 53 94 0.0 2.0 0.00 0.00 0.00 64 1015.6
20200331155025 52 77 0.0 5.0 0.00 0.00 0.00 65 1015.5
20200331154529 52 119 1.0 5.0 0.00 0.00 0.00 65 1015.6
20200331154025 52 76 2.0 5.0 0.00 0.00 0.00 65 1015.6
20200331153525 52 87 2.0 5.0 0.00 0.00 0.00 66 1015.7
20200331153035 52 103 1.0 5.0 0.00 0.00 0.00 66 1015.7
20200331152524 52 46 3.0 6.0 0.00 0.00 0.00 65 1015.8
20200331152024 52 69 3.0 9.0 0.00 0.00 0.00 65 1015.7
20200331151533 52 63 3.0 9.0 0.00 0.00 0.00 66 1015.8
20200331151023 52 46 2.0 6.0 0.00 0.00 0.00 67 1015.7
20200331150518 51 50 2.0 6.0 0.00 0.00 0.00 68 1015.7
20200331150027 51 60 3.0 6.0 0.00 0.00 0.00 67 1015.8
20200331145521 51 71 2.0 7.0 0.00 0.00 0.00 68 1015.8
20200331145020 51 62 4.0 7.0 0.00 0.00 0.00 67 1015.8
20200331144523 51 84 2.0 7.0 0.00 0.00 0.00 68 1015.7
20200331144019 51 78 3.0 6.0 0.00 0.00 0.00 68 1015.7
20200331143516 51 48 2.0 6.0 0.00 0.00 0.00 69 1015.6
20200331143048 50 100 2.0 6.0 0.00 0.00 0.00 71 1015.7
20200331142516 50 50 3.0 7.0 0.00 0.00 0.00 71 1015.9
20200331142018 50 53 3.0 7.0 0.00 0.00 0.00 71 1015.8
20200331141530 50 58 1.0 6.0 0.00 0.00 0.00 72 1015.7
20200331141011 50 43 1.0 7.0 0.00 0.00 0.00 72 1015.7
20200331140508 50 73 2.0 6.0 0.00 0.00 0.00 72 1015.8
20200331140014 50 58 0.0 3.0 0.00 0.00 0.00 74 1015.8
20200331135514 50 71 1.0 4.0 0.00 0.00 0.00 74 1015.8
20200331135019 50 53 1.0 4.0 0.00 0.00 0.00 75 1015.8
20200331134509 50 58 2.0 4.0 0.00 0.00 0.00 75 1015.8
20200331134019 50 10 1.0 3.0 0.00 0.00 0.00 76 1015.8
20200331133508 49 36 0.0 1.0 0.00 0.00 0.00 77 1016.0
20200331133008 49 36 0.0 2.0 0.00 0.00 0.00 76 1015.8
20200331132512 49 56 0.0 2.0 0.00 0.00 0.00 77 1015.8
20200331132008 49 50 0.0 1.0 0.00 0.00 0.00 77 1015.8
20200331131514 49 20 0.0 1.0 0.00 0.00 0.00 77 1015.8
20200331130559 49 21 0.0 1.0 0.00 0.00 0.00 77 1015.8
20200331130220 49 21 0.0 1.0 0.00 0.00 0.00 77 1015.9
20200331125605 48 21 0.0 1.0 0.00 0.00 0.00 76 1015.7
20200331125059 48 6 0.0 1.0 0.00 0.00 0.00 76 1015.8
20200331124615 48 6 0.0 1.0 0.00 0.00 0.00 76 1015.7
20200331124058 48 6 0.0 1.0 0.00 0.00 0.00 76 1015.6
20200331123558 48 7 0.0 1.0 0.00 0.00 0.00 76 1015.6
20200331123221 48 7 0.0 1.0 0.00 0.00 0.00 76 1015.4
20200331122601 48 7 0.0 1.0 0.00 0.00 0.00 76 1015.4
20200331122102 48 7 0.0 1.0 0.00 0.00 0.00 75 1015.3
20200331121624 48 8 0.0 2.0 0.00 0.00 0.00 75 1015.2
20200331121053 48 8 0.0 2.0 0.00 0.00 0.00 74 1015.3
20200331120559 48 358 0.0 1.0 0.00 0.00 0.00 74 1015.2
20200331120153 49 358 0.0 1.0 0.00 0.00 0.00 73 1015.1
20200331115552 49 358 0.0 2.0 0.00 0.00 0.00 73 1015.1
20200331115052 49 360 0.0 2.0 0.00 0.00 0.00 73 1015.0
20200331114636 49 16 0.0 3.0 0.00 0.00 0.00 72 1015.0
20200331114045 49 16 1.0 4.0 0.00 0.00 0.00 72 1014.9
20200331113544 49 342 1.0 4.0 0.00 0.00 0.00 71 1014.8
20200331113050 49 10 1.0 3.0 0.00 0.00 0.00 71 1014.5
20200331112544 49 13 1.0 3.0 0.00 0.00 0.00 70 1014.5
20200331112043 49 13 1.0 4.0 0.00 0.00 0.00 70 1014.4
20200331111558 49 18 0.0 4.0 0.00 0.00 0.00 70 1014.3
20200331111039 49 359 0.0 1.0 0.00 0.00 0.00 69 1014.3
20200331110535 49 18 0.0 5.0 0.00 0.00 0.00 68 1014.2
20200331110123 50 16 2.0 5.0 0.00 0.00 0.00 67 1014.4
20200331105534 50 17 1.0 4.0 0.00 0.00 0.00 67 1014.5
20200331105033 50 337 1.0 4.0 0.00 0.00 0.00 66 1014.4
20200331104624 50 360 2.0 3.0 0.00 0.00 0.00 66 1014.5
20200331104032 50 10 1.0 3.0 0.00 0.00 0.00 65 1014.5
20200331103535 50 349 1.0 2.0 0.00 0.00 0.00 65 1014.4
20200331103102 51 13 0.0 3.0 0.00 0.00 0.00 64 1014.3
20200331102531 51 27 1.0 3.0 0.00 0.00 0.00 64 1014.2
20200331102031 51 5 0.0 4.0 0.00 0.00 0.00 64 1014.0
20200331101646 51 64 0.0 4.0 0.00 0.00 0.00 63 1014.1
20200331101024 51 74 1.0 5.0 0.00 0.00 0.00 63 1014.1
20200331100524 51 27 1.0 5.0 0.00 0.00 0.00 63 1014.0
20200331100038 51 349 1.0 7.0 0.00 0.00 0.00 62 1014.2
20200331095524 51 356 2.0 7.0 0.00 0.00 0.00 62 1014.2
20200331095023 51 52 2.0 6.0 0.00 0.00 0.00 62 1014.1
20200331094605 51 1 1.0 5.0 0.00 0.00 0.00 62 1014.2
20200331094023 51 320 2.0 5.0 0.00 0.00 0.00 61 1014.4
20200331093523 51 5 2.0 5.0 0.00 0.00 0.00 61 1014.4
20200331093040 51 337 1.0 5.0 0.00 0.00 0.00 61 1014.2
20200331092522 51 12 0.0 3.0 0.00 0.00 0.00 60 1014.3
20200331092030 52 332 1.0 3.0 0.00 0.00 0.00 60 1014.2
20200331091548 52 13 0.0 3.0 0.00 0.00 0.00 59 1014.1
20200331091016 51 8 0.0 3.0 0.00 0.00 0.00 58 1014.3
20200331090513 51 60 0.0 3.0 0.00 0.00 0.00 59 1014.5
20200331090035 51 55 0.0 3.0 0.00 0.00 0.00 59 1014.7
20200331085511 51 66 2.0 3.0 0.00 0.00 0.00 59 1014.7
20200331085011 51 118 0.0 1.0 0.00 0.00 0.00 60 1015.1
20200331084547 50 124 0.0 1.0 0.00 0.00 0.00 61 1015.3
20200331084010 50 124 0.0 0.0 0.00 0.00 0.00 62 1015.6
20200331083515 49 124 0.0 0.0 0.00 0.00 0.00 64 1015.5
20200331083027 49 124 0.0 0.0 0.00 0.00 0.00 64 1015.6
20200331082515 49 124 0.0 0.0 0.00 0.00 0.00 65 1015.3
20200331082009 50 124 0.0 0.0 0.00 0.00 0.00 65 1015.2
20200331081517 50 124 0.0 0.0 0.00 0.00 0.00 64 1015.1
20200331081002 50 124 0.0 0.0 0.00 0.00 0.00 63 1015.1
20200331080001 50 124 0.0 1.0 0.00 0.00 0.00 62 1015.3
20200331075109 50 124 0.0 1.0 0.00 0.00 0.00 64 1015.4
20200331074632 50 124 0.0 1.0 0.00 0.00 0.00 63 1016.0
20200331074101 50 124 0.0 0.0 0.00 0.00 0.00 63 1016.3
20200331073555 50 124 0.0 0.0 0.00 0.00 0.00 63 1016.6
20200331073248 50 124 0.0 0.0 0.00 0.00 0.00 64 1016.7
20200331072557 50 124 0.0 0.0 0.00 0.00 0.00 63 1016.7
20200331072055 50 124 0.0 0.0 0.00 0.00 0.00 65 1016.6
20200331071632 50 124 0.0 0.0 0.00 0.00 0.00 66 1016.9
20200331071126 50 124 0.0 0.0 0.00 0.00 0.00 62 1016.7
20200331070610 50 124 0.0 0.0 0.00 0.00 0.00 62 1016.9
20200331070155 50 124 0.0 0.0 0.00 0.00 0.00 61 1016.8
20200331065555 50 124 0.0 1.0 0.00 0.00 0.00 65 1016.7
20200331065045 51 124 0.0 1.0 0.00 0.00 0.00 65 1016.7
20200331064700 51 124 0.0 1.0 0.00 0.00 0.00 63 1016.3
20200331064044 51 126 0.0 1.0 0.00 0.00 0.00 61 1016.4
20200331063541 51 126 0.0 0.0 0.00 0.00 0.00 62 1016.8
20200331063332 51 127 0.0 0.0 0.00 0.00 0.00 55 1016.9
20200331062541 52 127 0.0 0.0 0.00 0.00 0.00 55 1016.9
20200331062040 52 127 0.0 0.0 0.00 0.00 0.00 53 1017.1
20200331061627 52 127 0.0 0.0 0.00 0.00 0.00 55 1017.1
20200331061043 52 127 0.0 1.0 0.00 0.00 0.00 53 1016.9
20200331060542 52 126 0.0 0.0 0.00 0.00 0.00 51 1017.3
20200331060238 52 126 0.0 1.0 0.00 0.00 0.00 53 1017.5
20200331055530 52 127 0.0 1.0 0.00 0.00 0.00 51 1017.4
20200331055028 52 127 0.0 1.0 0.00 0.00 0.00 53 1017.3
20200331054553 51 126 0.0 0.0 0.00 0.00 0.00 55 1017.4
20200331054027 51 127 0.0 1.0 0.00 0.00 0.00 51 1017.6
20200331053535 52 127 0.0 1.0 0.00 0.00 0.00 53 1017.6
20200331053053 51 127 0.0 1.0 0.00 0.00 0.00 53 1017.5
20200331052532 51 127 0.0 0.0 0.00 0.00 0.00 54 1017.6
20200331052036 51 127 0.0 0.0 0.00 0.00 0.00 53 1017.4
20200331051529 52 127 0.0 0.0 0.00 0.00 0.00 51 1017.4
20200331051017 52 126 0.0 0.0 0.00 0.00 0.00 54 1017.4
20200331050526 52 127 0.0 0.0 0.00 0.00 0.00 51 1017.1
20200331050028 52 126 0.0 0.0 0.00 0.00 0.00 51 1016.8
20200331045520 52 127 0.0 0.0 0.00 0.00 0.00 49 1016.8
20200331045013 53 127 0.0 0.0 0.00 0.00 0.00 49 1017.0
20200331044524 53 127 0.0 0.0 0.00 0.00 0.00 50 1017.1
20200331044034 53 127 0.0 1.0 0.00 0.00 0.00 51 1016.9
20200331043518 53 127 0.0 1.0 0.00 0.00 0.00 50 1017.1
20200331043017 53 128 0.0 1.0 0.00 0.00 0.00 49 1017.3
20200331042512 53 128 0.0 1.0 0.00 0.00 0.00 48 1017.5
20200331042024 52 128 0.0 0.0 0.00 0.00 0.00 49 1017.6
20200331041511 52 128 0.0 0.0 0.00 0.00 0.00 48 1017.8
20200331041003 52 128 0.0 0.0 0.00 0.00 0.00 47 1017.9
20200331040620 52 128 0.0 0.0 0.00 0.00 0.00 47 1018.1
20200331040147 53 128 0.0 0.0 0.00 0.00 0.00 49 1017.8
20200331035604 53 128 0.0 0.0 0.00 0.00 0.00 47 1017.6
20200331035058 53 128 0.0 0.0 0.00 0.00 0.00 51 1017.9
20200331034627 53 128 0.0 0.0 0.00 0.00 0.00 49 1017.8
20200331034057 53 128 0.0 0.0 0.00 0.00 0.00 54 1017.9
20200331033558 54 128 0.0 0.0 0.00 0.00 0.00 50 1017.9
20200331033200 54 128 0.0 0.0 0.00 0.00 0.00 49 1018.2
20200331032556 54 128 0.0 0.0 0.00 0.00 0.00 48 1018.1
20200331032056 54 128 0.0 0.0 0.00 0.00 0.00 48 1018.1
20200331031630 53 128 0.0 1.0 0.00 0.00 0.00 49 1018.2
20200331031057 53 128 0.0 1.0 0.00 0.00 0.00 51 1018.2
20200331030552 53 128 0.0 0.0 0.00 0.00 0.00 52 1018.3
20200331030134 53 128 0.0 0.0 0.00 0.00 0.00 50 1018.3
20200331025549 53 128 0.0 0.0 0.00 0.00 0.00 50 1018.2
20200331025049 54 128 0.0 0.0 0.00 0.00 0.00 49 1018.1
20200331024743 54 128 0.0 0.0 0.00 0.00 0.00 50 1018.2
20200331024049 54 128 0.0 0.0 0.00 0.00 0.00 50 1018.3
20200331023547 54 128 0.0 0.0 0.00 0.00 0.00 51 1018.2
20200331023100 55 128 0.0 1.0 0.00 0.00 0.00 49 1018.2
20200331022547 55 128 0.0 1.0 0.00 0.00 0.00 49 1018.2
20200331022051 55 128 0.0 0.0 0.00 0.00 0.00 52 1018.4
20200331021743 55 128 0.0 0.0 0.00 0.00 0.00 50 1018.3
20200331021043 55 128 0.0 0.0 0.00 0.00 0.00 50 1018.5
20200331020542 55 128 0.0 0.0 0.00 0.00 0.00 51 1018.5
20200331020109 55 128 0.0 0.0 0.00 0.00 0.00 50 1018.6
20200331015539 55 128 0.0 0.0 0.00 0.00 0.00 50 1018.8
20200331015049 55 128 0.0 0.0 0.00 0.00 0.00 50 1018.7
20200331014601 56 128 0.0 0.0 0.00 0.00 0.00 50 1018.7
20200331014039 55 128 0.0 1.0 0.00 0.00 0.00 50 1018.9
20200331013540 55 128 0.0 0.0 0.00 0.00 0.00 50 1019.0
20200331013104 56 128 0.0 0.0 0.00 0.00 0.00 51 1018.9
20200331012538 56 128 0.0 0.0 0.00 0.00 0.00 50 1019.0
20200331012043 56 128 0.0 0.0 0.00 0.00 0.00 48 1019.0
20200331011605 56 128 0.0 0.0 0.00 0.00 0.00 48 1018.8
20200331011055 56 128 0.0 0.0 0.00 0.00 0.00 48 1018.9
20200331010551 56 128 0.0 0.0 0.00 0.00 0.00 48 1018.9
20200331010056 57 128 0.0 0.0 0.00 0.00 0.00 48 1018.6
20200331005520 57 128 0.0 0.0 0.00 0.00 0.00 50 1018.7
20200331005019 57 128 0.0 0.0 0.00 0.00 0.00 48 1018.8
20200331004524 57 128 0.0 1.0 0.00 0.00 0.00 47 1019.0
20200331004019 58 128 0.0 1.0 0.00 0.00 0.00 48 1018.8
20200331003530 58 128 0.0 1.0 0.00 0.00 0.00 47 1018.8
20200331003108 58 129 0.0 1.0 0.00 0.00 0.00 48 1018.5
20200331002523 58 129 0.0 1.0 0.00 0.00 0.00 46 1018.5
20200331002018 59 129 0.0 1.0 0.00 0.00 0.00 45 1018.6
20200331001521 59 129 0.0 1.0 0.00 0.00 0.00 48 1018.4
20200331001017 59 129 0.0 2.0 0.00 0.00 0.00 46 1018.6
20200331000511 60 96 0.0 2.0 0.00 0.00 0.00 46 1018.6
20200331000050 61 69 0.0 2.0 0.00 0.00 0.00 43 1018.7
20200330235511 61 72 0.0 2.0 0.00 0.00 0.00 43 1018.9
20200330235009 61 72 0.0 3.0 0.00 0.00 0.00 43 1019.0
20200330234546 61 72 0.0 3.0 0.00 0.00 0.00 43 1019.1
20200330234011 62 79 1.0 2.0 0.00 0.00 0.00 41 1019.1
20200330233509 62 54 0.0 3.0 0.00 0.00 0.00 40 1019.2
20200330233024 62 58 0.0 4.0 0.00 0.00 0.00 41 1019.1
20200330232509 62 77 2.0 4.0 0.00 0.00 0.00 40 1019.1